Flag for United Kingdom Weather past 2 weeks in Weymouth, England, United Kingdom

Now
55 °F

Cool.


Feels Like: 52 °F
Forecast: 53 / 64 °F
Wind: 8 mph from West

Location: Isle Of Portland

Current Time: May 22, 2015 at 7:41:32 PM

Latest Report: May 22, 2015 at 7:00 PM


Visibility: 7 mi

Pressure: 30.26 "Hg

Humidity: 94%

Dew point: 53 °F

Location of WeymouthLocation

Historic Weather in Weymouth — Graph

°F

Weymouth temperature yesterday

Maximum temperature yesterday: 57 °F (at 3:00 PM)
Minimum temperature yesterday: 50 °F (at 1:00 AM)
Average temperature yesterday: 53 °F

Past Weeks' High & Low Weather Summary

 TemperatureHumidityPressure
High57 °F (May 21, 3:00 PM)100% (May 8, 8:00 PM)30.42 "Hg (May 8, 8:00 PM)
Low45 °F (May 13, 5:00 AM)58% (May 18, 4:00 PM)29.68 "Hg (May 19, 4:00 AM)
Average52 °F85%30.09 "Hg
* Reported May 7 6:00 PM — May 22 6:00 PM, Weymouth, Weather by CustomWeather, © 2015

Note: Actual official high and low records may vary slightly from our data, if they occured in-between our weather recording intervals... More about our weather records

Advertising

Weymouth weather history for previous 24 hours

 ConditionsComfort  
Time TempWeatherWind HumidityBarometerVisibility
6:00 PM
Fri, May 22
55 °FCool.3 mph93%30.26 "Hg8 mi
5:00 PM56 °FCool.12 mph91%30.27 "Hg12 mi
4:00 PM55 °FCool.10 mph95%30.28 "Hg9 mi
3:00 PM55 °FCool.10 mph94%30.29 "Hg12 mi
2:00 PM55 °FCool.10 mph94%30.30 "Hg9 mi
1:00 PM56 °FCool.10 mph94%30.31 "Hg9 mi
12:00 PM55 °FFog.13 mph98%30.32 "Hg6 mi
11:00 AM54 °FCool.13 mph99%30.33 "Hg4 mi
10:00 AM53 °FDrizzle. Cloudy.13 mph100%30.34 "Hg1 mi
9:00 AM53 °FLight freezing rain. Cloudy.14 mph99%30.34 "Hg1 mi
8:00 AM53 °FCool.12 mph97%30.34 "Hg6 mi
7:00 AM52 °FCool.13 mph95%30.34 "Hg14 mi
6:00 AM51 °FCool.12 mph93%30.34 "Hg19 mi
5:00 AM51 °FCool.12 mph91%30.34 "Hg25 mi
4:00 AM51 °FCool.14 mph88%30.36 "Hg25 mi
3:00 AM50 °FCool.15 mph85%30.37 "Hg15 mi
2:00 AM51 °FCool.15 mph82%30.38 "Hg14 mi
1:00 AM51 °FCool.14 mph79%30.38 "Hg15 mi
12:00 AM52 °FCool.16 mph80%30.38 "Hg13 mi
11:00 PM
Thu, May 21
53 °FCool.16 mph81%30.38 "Hg11 mi
10:00 PM53 °FCool.14 mph82%30.38 "Hg9 mi
9:00 PM54 °FCool.17 mph81%30.36 "Hg9 mi
8:00 PM55 °FCool.15 mph83%30.34 "Hg9 mi
7:00 PM54 °FCool.17 mph83%30.35 "Hg6 mi
Weather by CustomWeather, © 2015

See weather overviewHow to use our weather pages